NSZ3628 EKCH-LFMT

Flight info

Callsign NSZ3628
Flight time 2h 11m
Altitude 40000
Route NEXEN T503 MICOS DCT LNO DCT RASCA DCT FAMEN/N0459F390 DCT AHVEC DCT RESMI DCT DEKOD DCT DISAK/N0460F330 DCT DIRMO DCT ETAMO DCT ADEKA DCT MOKDI DCT MEN
Aircraft B38M/M-SDE1FGHILORVWXY/HB1

Departure

Time 2026-05-08 09:51
Airport Copenhagen Kastrup Airport (EKCH)

Arrival

Time 2026-05-08 12:02
Airport Montpellier-Méditerranée Airport (LFMT)
Time Latitude Longitude Altitude Speed Heading
2026-05-08 09:36 55.62703 12.64167 26 ft 2 kts 33°
2026-05-08 09:43 55.62695 12.64158 26 ft 3 kts 33°
2026-05-08 09:43 55.62678 12.64139 28 ft 3 kts 33°
2026-05-08 09:43 55.62662 12.64120 29 ft 3 kts 41°
2026-05-08 09:43 55.62651 12.64095 28 ft 3 kts 77°
2026-05-08 09:44 55.62652 12.64064 29 ft 3 kts 116°
2026-05-08 09:44 55.62658 12.64046 30 ft 2 kts 123°
2026-05-08 09:44 55.62668 12.64019 31 ft 3 kts 123°
2026-05-08 09:44 55.62678 12.63991 28 ft 2 kts 123°
2026-05-08 09:45 55.62680 12.63986 28 ft 0 kts 123°
2026-05-08 09:47 55.62675 12.63999 30 ft 4 kts 123°
2026-05-08 09:47 55.62643 12.64087 31 ft 13 kts 123°
2026-05-08 09:47 55.62613 12.64167 28 ft 2 kts 123°
2026-05-08 09:48 55.62584 12.64214 26 ft 5 kts 155°
2026-05-08 09:48 55.62545 12.64206 26 ft 10 kts 190°
2026-05-08 09:48 55.62522 12.64214 29 ft 2 kts 146°
2026-05-08 09:48 55.62507 12.64250 26 ft 7 kts 122°
2026-05-08 09:49 55.62460 12.64366 27 ft 16 kts 127°
2026-05-08 09:49 55.62367 12.64437 26 ft 14 kts 194°
2026-05-08 09:49 55.62251 12.64382 24 ft 21 kts 197°
2026-05-08 09:49 55.62096 12.64258 28 ft 27 kts 205°
2026-05-08 09:50 55.61916 12.64107 30 ft 29 kts 202°
2026-05-08 09:50 55.61765 12.64080 27 ft 17 kts 176°
2026-05-08 09:50 55.61650 12.64084 30 ft 16 kts 196°
2026-05-08 09:50 55.61552 12.63959 28 ft 30 kts 221°
2026-05-08 09:51 55.61299 12.63575 29 ft 68 kts 223°
2026-05-08 09:51 55.60788 12.62777 27 ft 129 kts 221°
2026-05-08 09:51 55.59978 12.61526 85 ft 174 kts 219°
2026-05-08 09:51 55.59050 12.60054 688 ft 183 kts 218°
2026-05-08 09:52 55.58122 12.58629 1737 ft 170 kts 217°
2026-05-08 09:52 55.57153 12.57160 1975 ft 195 kts 216°
2026-05-08 09:52 55.56008 12.55668 2297 ft 217 kts 211°
2026-05-08 09:52 55.54694 12.54058 2638 ft 241 kts 211°
2026-05-08 09:53 55.53310 12.52358 3389 ft 244 kts 212°
2026-05-08 09:53 55.51900 12.50629 4034 ft 254 kts 212°
2026-05-08 09:53 55.50393 12.48783 4475 ft 272 kts 212°
2026-05-08 09:53 55.48828 12.46866 5230 ft 274 kts 212°
2026-05-08 09:54 55.47249 12.44934 5980 ft 278 kts 212°
2026-05-08 09:54 55.45652 12.42984 6766 ft 280 kts 212°
2026-05-08 09:54 55.44044 12.41020 7505 ft 282 kts 212°
2026-05-08 09:54 55.42428 12.39049 8246 ft 284 kts 212°
2026-05-08 09:55 55.40798 12.37064 8994 ft 286 kts 212°
2026-05-08 09:55 55.39157 12.35067 9720 ft 288 kts 211°
2026-05-08 09:55 55.37503 12.33055 10433 ft 290 kts 211°
2026-05-08 09:55 55.35797 12.30981 10756 ft 307 kts 212°
2026-05-08 09:56 55.33986 12.28784 10952 ft 326 kts 212°
2026-05-08 09:56 55.32066 12.26457 11101 ft 345 kts 212°
2026-05-08 09:56 55.30040 12.24004 11318 ft 360 kts 212°
2026-05-08 09:56 55.27964 12.21495 11832 ft 364 kts 212°
2026-05-08 09:57 55.23776 12.16442 13060 ft 368 kts 212°
2026-05-08 09:57 55.21657 12.13888 13640 ft 370 kts 213°
2026-05-08 09:57 55.19585 12.11299 14177 ft 373 kts 215°
2026-05-08 09:58 55.17491 12.08597 14709 ft 375 kts 215°
2026-05-08 09:58 55.15373 12.05881 15191 ft 379 kts 215°
2026-05-08 09:58 55.13236 12.03150 15687 ft 381 kts 215°
2026-05-08 09:58 55.11082 12.00405 16176 ft 384 kts 215°
2026-05-08 09:59 55.08918 11.97647 16682 ft 386 kts 215°
2026-05-08 09:59 55.06737 11.94872 17156 ft 389 kts 215°
2026-05-08 09:59 55.04534 11.92075 17608 ft 392 kts 216°
2026-05-08 09:59 55.02319 11.89267 18062 ft 395 kts 216°
2026-05-08 10:00 55.00092 11.86447 18523 ft 397 kts 216°
2026-05-08 10:00 54.97851 11.83612 18905 ft 400 kts 216°
2026-05-08 10:00 54.95594 11.80762 19255 ft 403 kts 216°
2026-05-08 10:00 54.93320 11.77895 19660 ft 404 kts 216°
2026-05-08 10:01 54.91040 11.75023 20078 ft 405 kts 216°
2026-05-08 10:01 54.88744 11.72135 20392 ft 408 kts 216°
2026-05-08 10:01 54.86432 11.69234 20734 ft 411 kts 216°
2026-05-08 10:01 54.84108 11.66319 21116 ft 412 kts 216°
2026-05-08 10:02 54.81779 11.63401 21473 ft 415 kts 216°
2026-05-08 10:02 54.79442 11.60476 21792 ft 417 kts 216°
2026-05-08 10:02 54.77108 11.57558 22152 ft 419 kts 216°
2026-05-08 10:02 54.74741 11.54604 22522 ft 421 kts 216°
2026-05-08 10:03 54.72358 11.51633 22848 ft 424 kts 216°
2026-05-08 10:03 54.69957 11.48643 23205 ft 425 kts 216°
2026-05-08 10:03 54.67566 11.45672 23622 ft 426 kts 216°
2026-05-08 10:03 54.65155 11.42681 23942 ft 428 kts 216°
2026-05-08 10:04 54.62726 11.39672 24209 ft 431 kts 216°
2026-05-08 10:04 54.60299 11.36669 24518 ft 432 kts 216°
2026-05-08 10:04 54.57853 11.33648 24858 ft 432 kts 216°
2026-05-08 10:04 54.55397 11.30633 25128 ft 435 kts 215°
2026-05-08 10:05 54.52927 11.27622 25412 ft 436 kts 215°
2026-05-08 10:05 54.50442 11.24595 25736 ft 437 kts 215°
2026-05-08 10:05 54.47952 11.21565 26003 ft 439 kts 216°
2026-05-08 10:05 54.45453 11.18527 26300 ft 440 kts 216°
2026-05-08 10:06 54.42951 11.15494 26626 ft 441 kts 216°
2026-05-08 10:06 54.40445 11.12460 26891 ft 443 kts 216°
2026-05-08 10:06 54.37922 11.09408 27095 ft 446 kts 216°
2026-05-08 10:06 54.35390 11.06350 27402 ft 446 kts 216°
2026-05-08 10:07 54.32882 11.03328 27674 ft 447 kts 216°
2026-05-08 10:07 54.30369 11.00167 27865 ft 450 kts 221°
2026-05-08 10:07 54.28068 10.96527 28133 ft 450 kts 223°
2026-05-08 10:07 54.25781 10.92886 28520 ft 448 kts 223°
2026-05-08 10:08 54.23501 10.89250 28809 ft 448 kts 223°
2026-05-08 10:08 54.21958 10.86792 29046 ft 448 kts 224°
2026-05-08 10:08 54.18950 10.82008 29560 ft 445 kts 224°
2026-05-08 10:08 54.16681 10.78404 29846 ft 445 kts 223°
2026-05-08 10:09 54.14414 10.74808 30149 ft 445 kts 223°
2026-05-08 10:09 54.12912 10.72431 30395 ft 443 kts 223°
2026-05-08 10:09 54.10659 10.68867 30660 ft 443 kts 223°
2026-05-08 10:09 54.08397 10.65295 30866 ft 443 kts 223°
2026-05-08 10:10 54.06134 10.61727 31152 ft 441 kts 223°
2026-05-08 10:10 54.03883 10.58184 31421 ft 441 kts 223°
2026-05-08 10:10 54.01640 10.54658 31604 ft 441 kts 223°
2026-05-08 10:10 53.99385 10.51120 31908 ft 439 kts 223°
2026-05-08 10:11 53.97141 10.47603 32160 ft 439 kts 223°
2026-05-08 10:11 53.94895 10.44089 32381 ft 439 kts 223°
2026-05-08 10:11 53.92650 10.40582 32625 ft 438 kts 223°
2026-05-08 10:11 53.90410 10.37089 32864 ft 437 kts 223°
2026-05-08 10:12 53.88170 10.33601 33078 ft 437 kts 223°
2026-05-08 10:12 53.85925 10.30110 33301 ft 436 kts 223°
2026-05-08 10:12 53.83724 10.26692 33522 ft 436 kts 223°
2026-05-08 10:12 53.81487 10.23225 33723 ft 436 kts 223°
2026-05-08 10:13 53.79253 10.19765 33918 ft 435 kts 223°
2026-05-08 10:13 53.77019 10.16313 34134 ft 434 kts 223°
2026-05-08 10:13 53.74793 10.12877 34328 ft 434 kts 223°
2026-05-08 10:13 53.72562 10.09439 34476 ft 434 kts 223°
2026-05-08 10:14 53.70332 10.06008 34618 ft 434 kts 223°
2026-05-08 10:14 53.68101 10.02581 34761 ft 434 kts 223°
2026-05-08 10:14 53.65867 9.99153 34893 ft 434 kts 223°
2026-05-08 10:14 53.63639 9.95742 35040 ft 434 kts 223°
2026-05-08 10:15 53.61405 9.92324 35176 ft 434 kts 223°
2026-05-08 10:15 53.59166 9.88905 35322 ft 434 kts 223°
2026-05-08 10:15 53.56928 9.85491 35436 ft 434 kts 223°
2026-05-08 10:15 53.54690 9.82084 35578 ft 434 kts 223°
2026-05-08 10:16 53.52451 9.78680 35715 ft 434 kts 223°
2026-05-08 10:16 53.50208 9.75276 35845 ft 434 kts 223°
2026-05-08 10:16 53.47967 9.71879 35971 ft 434 kts 223°
2026-05-08 10:16 53.45728 9.68489 36092 ft 434 kts 223°
2026-05-08 10:17 53.41235 9.61704 36300 ft 434 kts 223°
2026-05-08 10:17 53.38988 9.58318 36409 ft 434 kts 223°
2026-05-08 10:17 53.36756 9.54959 36520 ft 434 kts 223°
2026-05-08 10:18 53.32262 9.48212 36734 ft 434 kts 223°
2026-05-08 10:18 53.30044 9.44889 36835 ft 434 kts 223°
2026-05-08 10:18 53.27761 9.41475 36935 ft 434 kts 223°
2026-05-08 10:19 53.23291 9.34803 37117 ft 434 kts 223°
2026-05-08 10:20 53.16534 9.24755 37376 ft 434 kts 223°
2026-05-08 10:20 53.12028 9.18080 37551 ft 433 kts 223°
2026-05-08 10:20 53.09779 9.14754 37661 ft 433 kts 223°
2026-05-08 10:21 53.07526 9.11429 37737 ft 432 kts 223°
2026-05-08 10:21 53.03023 9.04795 37868 ft 432 kts 223°
2026-05-08 10:22 52.98515 8.98174 37993 ft 433 kts 223°
2026-05-08 10:22 52.96262 8.94873 38111 ft 431 kts 223°
2026-05-08 10:22 52.94024 8.91597 38205 ft 429 kts 223°
2026-05-08 10:23 52.89572 8.85096 38186 ft 429 kts 222°
2026-05-08 10:23 52.85082 8.78558 38174 ft 430 kts 222°
2026-05-08 10:24 52.80594 8.72042 38179 ft 429 kts 222°
2026-05-08 10:24 52.76099 8.65535 38172 ft 429 kts 222°
2026-05-08 10:25 52.71605 8.59047 38169 ft 429 kts 222°
2026-05-08 10:25 52.67106 8.52571 38167 ft 429 kts 222°
2026-05-08 10:26 52.62602 8.46104 38164 ft 429 kts 222°
2026-05-08 10:26 52.58093 8.39650 38186 ft 429 kts 222°
2026-05-08 10:27 52.53594 8.33228 38188 ft 429 kts 222°
2026-05-08 10:27 52.49077 8.26799 38185 ft 429 kts 222°
2026-05-08 10:28 52.44566 8.20397 38171 ft 429 kts 222°
2026-05-08 10:28 52.40047 8.14000 38169 ft 429 kts 221°
2026-05-08 10:29 52.35563 8.07672 38170 ft 429 kts 221°
2026-05-08 10:29 52.31037 8.01302 38156 ft 429 kts 221°
2026-05-08 10:30 52.26517 7.94958 38153 ft 429 kts 221°
2026-05-08 10:30 52.21992 7.88625 38159 ft 429 kts 221°
2026-05-08 10:31 52.17459 7.82297 38161 ft 429 kts 221°
2026-05-08 10:31 52.12934 7.75999 38159 ft 429 kts 221°
2026-05-08 10:32 52.08394 7.69698 38156 ft 429 kts 221°
2026-05-08 10:32 52.03882 7.63453 38154 ft 429 kts 221°
2026-05-08 10:33 51.99339 7.57182 38136 ft 428 kts 221°
2026-05-08 10:33 51.94795 7.50928 38138 ft 428 kts 221°
2026-05-08 10:34 51.90242 7.44678 38134 ft 428 kts 221°
2026-05-08 10:34 51.85687 7.38442 38129 ft 428 kts 221°
2026-05-08 10:35 51.81134 7.32225 38116 ft 428 kts 221°
2026-05-08 10:35 51.76615 7.26073 38126 ft 428 kts 221°
2026-05-08 10:36 51.72051 7.19877 38125 ft 428 kts 221°
2026-05-08 10:36 51.67489 7.13698 38125 ft 429 kts 221°
2026-05-08 10:37 51.62919 7.07527 38125 ft 429 kts 221°
2026-05-08 10:37 51.58356 7.01382 38116 ft 429 kts 221°
2026-05-08 10:38 51.53780 6.95237 38120 ft 428 kts 221°
2026-05-08 10:38 51.49200 6.89102 38118 ft 428 kts 221°
2026-05-08 10:39 51.44618 6.82981 38117 ft 428 kts 221°
2026-05-08 10:39 51.40040 6.76882 38117 ft 428 kts 221°
2026-05-08 10:40 51.35478 6.70820 38121 ft 428 kts 221°
2026-05-08 10:40 51.30888 6.64739 38126 ft 428 kts 221°
2026-05-08 10:41 51.26294 6.58668 38123 ft 428 kts 221°
2026-05-08 10:41 51.21696 6.52608 38124 ft 428 kts 221°
2026-05-08 10:42 51.17094 6.46559 38124 ft 428 kts 220°
2026-05-08 10:42 51.12495 6.40529 38124 ft 428 kts 221°
2026-05-08 10:43 51.07886 6.34502 38123 ft 428 kts 221°
2026-05-08 10:43 51.03308 6.28533 38131 ft 428 kts 221°
2026-05-08 10:44 50.98702 6.22544 38124 ft 428 kts 221°
2026-05-08 10:44 50.94089 6.16558 38130 ft 428 kts 220°
2026-05-08 10:45 50.89473 6.10582 38139 ft 429 kts 220°
2026-05-08 10:45 50.84849 6.04611 38128 ft 429 kts 220°
2026-05-08 10:46 50.80227 5.98659 38124 ft 429 kts 220°
2026-05-08 10:46 50.75600 5.92715 38095 ft 429 kts 220°
2026-05-08 10:47 50.70960 5.86771 38102 ft 429 kts 220°
2026-05-08 10:47 50.66324 5.80845 38091 ft 429 kts 220°
2026-05-08 10:48 50.61723 5.74981 38092 ft 429 kts 220°
2026-05-08 10:48 50.57373 5.68623 38096 ft 426 kts 232°
2026-05-08 10:49 50.53589 5.61460 38086 ft 426 kts 231°
2026-05-08 10:49 50.49808 5.54282 38097 ft 426 kts 231°
2026-05-08 10:50 50.46027 5.47104 38085 ft 426 kts 231°
2026-05-08 10:50 50.42249 5.39947 38094 ft 426 kts 231°
2026-05-08 10:51 50.38463 5.32798 38094 ft 426 kts 231°
2026-05-08 10:51 50.34669 5.25651 38089 ft 426 kts 231°
2026-05-08 10:52 50.30903 5.18577 38083 ft 426 kts 231°
2026-05-08 10:52 50.27109 5.11469 38084 ft 426 kts 231°
2026-05-08 10:53 50.23306 5.04364 38096 ft 426 kts 231°
2026-05-08 10:53 50.19496 4.97267 38090 ft 426 kts 231°
2026-05-08 10:54 50.15681 4.90175 38080 ft 426 kts 231°
2026-05-08 10:54 50.11870 4.83118 38081 ft 426 kts 231°
2026-05-08 10:55 50.08065 4.76088 38081 ft 427 kts 231°
2026-05-08 10:55 50.04233 4.69027 38079 ft 427 kts 231°
2026-05-08 10:56 50.00400 4.61982 38077 ft 426 kts 231°
2026-05-08 10:56 49.96472 4.55102 38090 ft 426 kts 227°
2026-05-08 10:57 49.92363 4.48450 38077 ft 427 kts 227°
2026-05-08 10:57 49.86914 4.39572 38075 ft 427 kts 227°
2026-05-08 10:58 49.82818 4.32913 38078 ft 426 kts 227°
2026-05-08 10:58 49.78715 4.26259 38074 ft 427 kts 227°
2026-05-08 10:59 49.74611 4.19622 38076 ft 427 kts 227°
2026-05-08 10:59 49.70506 4.12999 38073 ft 427 kts 227°
2026-05-08 11:00 49.66398 4.06390 38064 ft 426 kts 227°
2026-05-08 11:00 49.62289 3.99795 38071 ft 426 kts 227°
2026-05-08 11:01 49.58172 3.93207 38067 ft 426 kts 227°
2026-05-08 11:01 49.54076 3.86667 38066 ft 427 kts 227°
2026-05-08 11:02 49.47881 3.76808 38066 ft 427 kts 227°
2026-05-08 11:03 49.43753 3.70261 38059 ft 426 kts 227°
2026-05-08 11:03 49.39620 3.63722 38062 ft 427 kts 227°
2026-05-08 11:04 49.35482 3.57192 38059 ft 427 kts 227°
2026-05-08 11:04 49.31336 3.50666 38060 ft 427 kts 227°
2026-05-08 11:05 49.27196 3.44166 38059 ft 427 kts 227°
2026-05-08 11:05 49.23042 3.37661 38057 ft 427 kts 227°
2026-05-08 11:06 49.18889 3.31176 38055 ft 427 kts 227°
2026-05-08 11:06 49.14756 3.24737 38053 ft 427 kts 227°
2026-05-08 11:07 49.10592 3.18265 38065 ft 427 kts 227°
2026-05-08 11:07 49.06418 3.11795 38064 ft 427 kts 227°
2026-05-08 11:08 49.02239 3.05333 38052 ft 428 kts 227°
2026-05-08 11:08 48.98058 2.98887 38057 ft 428 kts 227°
2026-05-08 11:09 48.93873 2.92448 38058 ft 428 kts 227°
2026-05-08 11:09 48.89685 2.86020 38055 ft 428 kts 227°
2026-05-08 11:10 48.85488 2.79591 38068 ft 428 kts 227°
2026-05-08 11:10 48.81467 2.72962 38067 ft 425 kts 238°
2026-05-08 11:11 48.78115 2.65555 38059 ft 425 kts 237°
2026-05-08 11:11 48.74773 2.58226 38077 ft 425 kts 237°
2026-05-08 11:12 48.71412 2.50862 38074 ft 425 kts 237°
2026-05-08 11:12 48.68042 2.43494 38078 ft 426 kts 237°
2026-05-08 11:13 48.64667 2.36135 38081 ft 426 kts 237°
2026-05-08 11:13 48.61293 2.28798 38064 ft 426 kts 237°
2026-05-08 11:14 48.57611 2.21795 38062 ft 430 kts 221°
2026-05-08 11:14 48.55069 2.19391 38068 ft 434 kts 206°
2026-05-08 11:14 48.52184 2.17986 38076 ft 438 kts 198°
2026-05-08 11:15 48.46244 2.15830 38045 ft 439 kts 196°
2026-05-08 11:15 48.40277 2.13844 38034 ft 439 kts 196°
2026-05-08 11:16 48.34295 2.11913 38046 ft 440 kts 196°
2026-05-08 11:16 48.28303 2.10342 38014 ft 445 kts 182°
2026-05-08 11:17 48.22111 2.11390 38026 ft 449 kts 176°
2026-05-08 11:17 48.15923 2.12630 38035 ft 449 kts 176°
2026-05-08 11:18 48.09728 2.13358 38048 ft 446 kts 181°
2026-05-08 11:18 48.03533 2.13744 38047 ft 446 kts 181°
2026-05-08 11:19 47.97332 2.14110 38038 ft 446 kts 182°
2026-05-08 11:19 47.91130 2.14475 38045 ft 446 kts 182°
2026-05-08 11:20 47.84924 2.14838 38049 ft 446 kts 182°
2026-05-08 11:20 47.78727 2.15201 38025 ft 447 kts 182°
2026-05-08 11:21 47.72513 2.15563 38015 ft 447 kts 182°
2026-05-08 11:21 47.66302 2.15924 38016 ft 447 kts 182°
2026-05-08 11:22 47.60084 2.16285 38011 ft 447 kts 182°
2026-05-08 11:22 47.53864 2.16645 38005 ft 447 kts 182°
2026-05-08 11:23 47.47678 2.17002 38009 ft 448 kts 182°
2026-05-08 11:23 47.41447 2.17361 38009 ft 448 kts 182°
2026-05-08 11:24 47.35213 2.17719 37990 ft 448 kts 182°
2026-05-08 11:24 47.28980 2.18077 38007 ft 448 kts 182°
2026-05-08 11:25 47.22743 2.18434 38003 ft 449 kts 182°
2026-05-08 11:25 47.16500 2.18791 38003 ft 449 kts 182°
2026-05-08 11:26 47.10254 2.19204 37995 ft 452 kts 176°
2026-05-08 11:26 47.07189 2.20371 38002 ft 459 kts 162°
2026-05-08 11:26 47.04210 2.22093 37988 ft 460 kts 163°
2026-05-08 11:27 46.98242 2.25486 38012 ft 460 kts 162°
2026-05-08 11:27 46.92285 2.28947 37998 ft 461 kts 162°
2026-05-08 11:28 46.86325 2.32415 38005 ft 461 kts 162°
2026-05-08 11:28 46.80684 2.36995 38003 ft 467 kts 150°
2026-05-08 11:29 46.75262 2.42123 38007 ft 467 kts 150°
2026-05-08 11:29 46.69809 2.47308 37994 ft 468 kts 150°
2026-05-08 11:30 46.64352 2.52487 37992 ft 468 kts 150°
2026-05-08 11:30 46.58891 2.57657 38000 ft 469 kts 150°
2026-05-08 11:31 46.53419 2.62826 37978 ft 469 kts 150°
2026-05-08 11:31 46.47959 2.67971 37994 ft 469 kts 150°
2026-05-08 11:32 46.42472 2.73129 37996 ft 470 kts 150°
2026-05-08 11:32 46.36989 2.78271 37991 ft 470 kts 150°
2026-05-08 11:33 46.31491 2.83413 37982 ft 470 kts 150°
2026-05-08 11:33 46.26037 2.88503 37993 ft 471 kts 150°
2026-05-08 11:34 46.20525 2.93634 37989 ft 471 kts 150°
2026-05-08 11:34 46.15008 2.98758 37987 ft 472 kts 150°
2026-05-08 11:35 46.09482 3.03877 37991 ft 472 kts 151°
2026-05-08 11:35 46.03959 3.08981 37999 ft 472 kts 151°
2026-05-08 11:36 45.98426 3.14086 38000 ft 472 kts 151°
2026-05-08 11:36 45.95568 3.16368 37972 ft 466 kts 163°
2026-05-08 11:36 45.92474 3.17518 37980 ft 454 kts 179°
2026-05-08 11:37 45.86252 3.17794 37985 ft 450 kts 184°
2026-05-08 11:37 45.79988 3.17802 37993 ft 450 kts 185°
2026-05-08 11:38 45.73731 3.17731 37998 ft 450 kts 185°
2026-05-08 11:38 45.67466 3.17648 37993 ft 450 kts 186°
2026-05-08 11:39 45.61189 3.17564 37985 ft 451 kts 186°
2026-05-08 11:39 45.54901 3.17480 37994 ft 452 kts 186°
2026-05-08 11:40 45.48603 3.17396 37991 ft 452 kts 186°
2026-05-08 11:40 45.42307 3.17312 37984 ft 452 kts 186°
2026-05-08 11:41 45.36018 3.17229 37995 ft 452 kts 186°
2026-05-08 11:41 45.29738 3.17144 37986 ft 450 kts 186°
2026-05-08 11:42 45.24169 3.17071 37989 ft 449 kts 186°
2026-05-08 11:42 45.17954 3.16989 37997 ft 449 kts 186°
2026-05-08 11:43 45.11706 3.16907 37991 ft 447 kts 186°
2026-05-08 11:43 45.08604 3.16866 37826 ft 444 kts 187°
2026-05-08 11:43 45.05513 3.16826 36943 ft 446 kts 186°
2026-05-08 11:43 45.02407 3.16786 36179 ft 446 kts 186°
2026-05-08 11:44 44.99304 3.16745 35570 ft 443 kts 186°
2026-05-08 11:44 44.96231 3.16704 34979 ft 441 kts 186°
2026-05-08 11:44 44.93159 3.16663 34234 ft 443 kts 186°
2026-05-08 11:44 44.90060 3.16623 33453 ft 448 kts 186°
2026-05-08 11:45 44.86925 3.16583 32703 ft 452 kts 186°
2026-05-08 11:45 44.83767 3.16541 31995 ft 455 kts 186°
2026-05-08 11:45 44.80583 3.16500 31260 ft 458 kts 186°
2026-05-08 11:45 44.77386 3.16458 30487 ft 461 kts 185°
2026-05-08 11:46 44.74171 3.16416 29591 ft 464 kts 185°
2026-05-08 11:46 44.70983 3.16375 28698 ft 464 kts 185°
2026-05-08 11:46 44.67757 3.16334 27866 ft 463 kts 184°
2026-05-08 11:46 44.64544 3.16291 27144 ft 465 kts 184°
2026-05-08 11:47 44.61280 3.16308 26438 ft 472 kts 179°
2026-05-08 11:47 44.58027 3.17068 25685 ft 471 kts 172°
2026-05-08 11:47 44.54831 3.17931 25121 ft 464 kts 172°
2026-05-08 11:47 44.51681 3.18794 24494 ft 460 kts 171°
2026-05-08 11:48 44.48552 3.19660 23869 ft 456 kts 171°
2026-05-08 11:48 44.46493 3.20231 23413 ft 454 kts 171°
2026-05-08 11:48 44.43404 3.21086 22690 ft 450 kts 171°
2026-05-08 11:48 44.40345 3.21932 22059 ft 445 kts 171°
2026-05-08 11:49 44.37325 3.22767 21446 ft 439 kts 171°
2026-05-08 11:49 44.34349 3.23590 20843 ft 434 kts 170°
2026-05-08 11:49 44.31400 3.24403 20241 ft 429 kts 170°
2026-05-08 11:49 44.28487 3.25207 19652 ft 424 kts 170°
2026-05-08 11:50 44.25611 3.26000 19026 ft 420 kts 170°
2026-05-08 11:50 44.22753 3.26786 18474 ft 415 kts 170°
2026-05-08 11:50 44.19947 3.27558 17887 ft 409 kts 170°
2026-05-08 11:50 44.17177 3.28319 17317 ft 402 kts 170°
2026-05-08 11:51 44.14453 3.29068 16756 ft 396 kts 169°
2026-05-08 11:51 44.11763 3.29804 16208 ft 392 kts 169°
2026-05-08 11:51 44.09105 3.30534 15667 ft 388 kts 169°
2026-05-08 11:51 44.06471 3.31255 15131 ft 383 kts 169°
2026-05-08 11:52 44.03909 3.31955 14619 ft 369 kts 169°
2026-05-08 11:52 44.01431 3.32632 14117 ft 358 kts 169°
2026-05-08 11:52 43.99016 3.33294 13541 ft 350 kts 169°
2026-05-08 11:52 43.96657 3.33940 13012 ft 340 kts 169°
2026-05-08 11:53 43.94406 3.34556 12572 ft 329 kts 169°
2026-05-08 11:53 43.92192 3.35161 12140 ft 319 kts 169°
2026-05-08 11:53 43.90038 3.35749 11699 ft 311 kts 169°
2026-05-08 11:53 43.87946 3.36320 11277 ft 302 kts 169°
2026-05-08 11:54 43.85951 3.37065 10818 ft 295 kts 154°
2026-05-08 11:54 43.84378 3.38799 10360 ft 289 kts 128°
2026-05-08 11:54 43.83329 3.41123 10001 ft 280 kts 122°
2026-05-08 11:54 43.82334 3.43407 9603 ft 273 kts 122°
2026-05-08 11:55 43.81374 3.45633 9208 ft 266 kts 122°
2026-05-08 11:55 43.80443 3.47808 8836 ft 261 kts 122°
2026-05-08 11:55 43.79519 3.49968 8495 ft 262 kts 122°
2026-05-08 11:55 43.78586 3.52147 8078 ft 264 kts 122°
2026-05-08 11:56 43.77648 3.54335 7701 ft 264 kts 122°
2026-05-08 11:56 43.76710 3.56525 7336 ft 265 kts 122°
2026-05-08 11:56 43.75770 3.58713 6979 ft 265 kts 123°
2026-05-08 11:56 43.74832 3.60902 6599 ft 264 kts 122°
2026-05-08 11:57 43.73902 3.63069 6214 ft 260 kts 123°
2026-05-08 11:57 43.72988 3.65201 5800 ft 256 kts 122°
2026-05-08 11:57 43.72087 3.67305 5397 ft 252 kts 122°
2026-05-08 11:57 43.71202 3.69367 5065 ft 247 kts 122°
2026-05-08 11:58 43.70331 3.71398 4649 ft 245 kts 122°
2026-05-08 11:58 43.69469 3.73402 4292 ft 240 kts 123°
2026-05-08 11:58 43.68629 3.75358 3963 ft 234 kts 123°
2026-05-08 11:59 43.66921 3.79002 3329 ft 223 kts 126°
2026-05-08 11:59 43.66046 3.80752 2986 ft 219 kts 126°
2026-05-08 11:59 43.65205 3.82443 2764 ft 206 kts 127°
2026-05-08 11:59 43.64414 3.84030 2527 ft 193 kts 127°
2026-05-08 12:00 43.63694 3.85459 2487 ft 168 kts 126°
2026-05-08 12:00 43.63043 3.86755 2530 ft 162 kts 128°
2026-05-08 12:00 43.62402 3.88031 2484 ft 163 kts 127°
2026-05-08 12:00 43.61765 3.89298 2120 ft 158 kts 127°
2026-05-08 12:01 43.61180 3.90543 1664 ft 152 kts 124°
2026-05-08 12:01 43.60583 3.91734 1157 ft 150 kts 128°
2026-05-08 12:01 43.59975 3.92863 759 ft 142 kts 127°
2026-05-08 12:01 43.59431 3.93960 431 ft 135 kts 126°
2026-05-08 12:02 43.58884 3.95028 199 ft 141 kts 127°
2026-05-08 12:02 43.58337 3.96126 20 ft 131 kts 129°
2026-05-08 12:02 43.57881 3.97014 17 ft 89 kts 124°
2026-05-08 12:02 43.57650 3.97479 22 ft 34 kts 125°
2026-05-08 12:03 43.57592 3.97594 21 ft 2 kts 125°
2026-05-08 12:03 43.57590 3.97597 21 ft 1 kts 125°
2026-05-08 12:03 43.57589 3.97598 21 ft 0 kts 125°
2026-05-08 12:03 43.57587 3.97602 21 ft 0 kts 125°
2026-05-08 12:04 43.57588 3.97602 22 ft 0 kts 125°
2026-05-08 12:04 43.57580 3.97618 20 ft 6 kts 123°
2026-05-08 12:05 43.57527 3.97723 20 ft 20 kts 126°
2026-05-08 12:05 43.57419 3.97935 18 ft 34 kts 126°
2026-05-08 12:05 43.57344 3.98082 18 ft 10 kts 125°
2026-05-08 12:05 43.57276 3.98166 18 ft 17 kts 164°
2026-05-08 12:06 43.57177 3.98052 17 ft 23 kts 268°
2026-05-08 12:06 43.57288 3.97797 16 ft 56 kts 304°
2026-05-08 12:06 43.57674 3.97027 17 ft 106 kts 304°
2026-05-08 12:06 43.57967 3.96450 17 ft 40 kts 305°
2026-05-08 12:07 43.58037 3.96266 18 ft 13 kts 244°
2026-05-08 12:07 43.57968 3.96164 18 ft 17 kts 264°
2026-05-08 12:07 43.58019 3.96026 18 ft 17 kts 304°
2026-05-08 12:07 43.58044 3.95964 18 ft 2 kts 289°
2026-05-08 12:08 43.58071 3.95873 18 ft 9 kts 296°
2026-05-08 12:08 43.58047 3.95817 18 ft 6 kts 215°
2026-05-08 12:08 43.58041 3.95811 18 ft 0 kts 215°